Terug naar catalogus

STARLINK-32898

ActiefCommunicatieVLEO
NORAD 62998·PAYLOAD·🇺🇸 United States

Gelanceerd Feb 11, 2025 vanaf Cape Canaveral Space Force Station

Loading…

Volgende Passages (komende 24 uur)

TLE

VersSource: CelesTrak SupGP

Epoch: Sep 15, 2026, 02:34 UTC

1 62998C 25031T   26258.10743056  .00046238  00000+0  16739-2 0  2582
2 62998  43.0006 153.8410 0001618 264.3702  18.7681 15.27572257    16

Volg STARLINK-32898 in realtime met AllMySat

Download on the App Store